Regional Weather Roundup
Issued by NWS Nashville, TN

Home | Current Version | Previous Version | Text Only | Print | Product List | Glossary On
Versions: 1 2 3 4 5 6 7 8 9 10 11 12 13 14 15 16 17 18 19 20 21 22 23 24 25 26 27 28 29 30 31 32 33 34 35 36 37 38 39 40 41 42 43 44 45 46 47 48 49 50
252
ASUS44 KOHX 031610
RWROHX
MIDDLE TENNESSEE HOURLY WEATHER ROUNDUP
NATIONAL WEATHER SERVICE NASHVILLE TN
1100 AM CDT TUE MAY 03 2016

NOTE: "FAIR" INDICATES FEW OR NO CLOUDS BELOW 12,000 FEET WITH
NO SIGNIFICANT WEATHER AND/OR OBSTRUCTIONS TO VISIBILITY.

* THESE REPORTS ARE NOT UNDER NWS QUALITY CONTROL AND MAY NOT
  REPORT WEATHER SUCH AS PRECIPITATION AND FOG.


TNZ005>011-023>034-057-059-062>066-078-080-031700
...NORTHERN MIDDLE TENNESSEE...

CITY           SKY/WX    TMP DP  RH WIND       PRES   REMARKS
CLARKSVILLE    CLOUDY    60  49  66 NW10      30.00S
CROSSVILLE     PTSUNNY   64  49  57 W9        29.96S
NASHVILLE      CLOUDY    62  49  62 VRB6      30.00R
SMYRNA         PTSUNNY   62  50  65 N10       30.00S
SPARTA         PTSUNNY   64  52  63 VRB3      29.95F
$$
TNZ056-058-060-061-075>077-079-093>097-031700
...SOUTHERN MIDDLE TENNESSEE...

CITY           SKY/WX    TMP DP  RH WIND       PRES   REMARKS
COLUMBIA       CLOUDY    63  57  82 VRB7      29.99S
FAYETTEVILLE   PTSUNNY   64  54  68 VRB6      29.98S
MCMINNVILLE    PTSUNNY   63  52  67 W7        29.97S
SHELBYVILLE    PTSUNNY   64  54  68 VRB5      29.99S
WINCHESTER     PTSUNNY   64  52  63 W5        29.97F
$$


...KEY TO REMARKS...
VSB - VISIBILITY IN MILES
WCI - WIND CHILL INDEX
HX  - HEAT INDEX





USA.gov is the U.S. government's official web portal to all federal, state and local government web resources and services.